Time,TemperatureF,DewpointF,PressureIn,WindDirection,WindDirectionDegrees,WindSpeedMPH,WindSpeedGustMPH,Humidity,HourlyPrecipIn,Conditions,Clouds,dailyrainin,SoftwareType,DateUTC
2013-02-07 00:00:00,19.5,12.4,29.18,SSW,203,0.0,0.9,70,-99.99,,,-99.99,WSDL version 420,2013-02-07 05:00:00,
2013-02-07 00:02:00,19.4,12.1,29.18,SSW,203,0.0,0.9,70,-99.99,,,-99.99,WSDL version 420,2013-02-07 05:02:00,
2013-02-07 00:03:00,19.4,12.1,29.18,SSW,203,0.0,0.9,70,-99.99,,,-99.99,WSDL version 420,2013-02-07 05:03:00,
2013-02-07 00:08:00,19.3,12.0,29.18,SSW,203,0.0,0.0,70,-99.99,,,-99.99,WSDL version 420,2013-02-07 05:08:00,
2013-02-07 00:13:00,19.3,12.0,29.18,SSW,203,0.0,0.0,70,-99.99,,,-99.99,WSDL version 420,2013-02-07 05:13:00,
2013-02-07 00:19:00,18.8,11.3,29.18,SSW,203,0.0,0.0,69,-99.99,,,-99.99,WSDL version 420,2013-02-07 05:19:00,
2013-02-07 00:25:00,19.3,12.1,29.21,SSW,203,0.0,0.0,71,-99.99,,,-99.99,WSDL version 420,2013-02-07 05:25:00,
2013-02-07 00:30:00,18.9,11.6,29.21,SSW,203,0.0,0.0,70,-99.99,,,-99.99,WSDL version 420,2013-02-07 05:30:00,
2013-02-07 00:35:00,18.9,11.6,29.21,SSW,203,0.0,0.0,70,-99.99,,,-99.99,WSDL version 420,2013-02-07 05:35:00,
2013-02-07 00:40:00,18.8,11.5,29.21,SSW,203,0.0,0.0,70,-99.99,,,-99.99,WSDL version 420,2013-02-07 05:40:00,
2013-02-07 00:45:00,18.7,11.4,29.21,SSW,203,0.0,0.0,70,-99.99,,,-99.99,WSDL version 420,2013-02-07 05:45:00,
2013-02-07 00:50:00,18.9,11.6,29.21,SSW,203,0.0,0.0,71,-99.99,,,-99.99,WSDL version 420,2013-02-07 05:50:00,
2013-02-07 00:55:00,19.3,12.3,29.21,SSW,203,0.0,0.0,71,-99.99,,,-99.99,WSDL version 420,2013-02-07 05:55:00,
2013-02-07 01:00:00,19.5,12.5,29.21,SSW,203,0.0,0.0,71,-99.99,,,-99.99,WSDL version 420,2013-02-07 06:00:00,
2013-02-07 01:05:00,19.9,13.1,29.18,SSW,203,0.0,0.0,72,-99.99,,,-99.99,WSDL version 420,2013-02-07 06:05:00,
2013-02-07 01:10:00,20.0,13.1,29.18,SSW,203,0.0,1.3,72,-99.99,,,-99.99,WSDL version 420,2013-02-07 06:10:00,
2013-02-07 01:15:00,20.2,13.5,29.18,SSW,203,0.0,1.3,72,-99.99,,,-99.99,WSDL version 420,2013-02-07 06:15:00,
2013-02-07 01:20:00,20.1,13.3,29.18,SSW,203,0.0,0.0,72,-99.99,,,-99.99,WSDL version 420,2013-02-07 06:20:00,
2013-02-07 01:25:00,20.0,13.2,29.18,SSW,203,0.0,0.0,71,-99.99,,,-99.99,WSDL version 420,2013-02-07 06:25:00,
2013-02-07 01:30:00,19.8,12.8,29.18,SSW,203,0.0,0.0,71,-99.99,,,-99.99,WSDL version 420,2013-02-07 06:30:00,
2013-02-07 01:35:00,20.4,13.6,29.18,SSW,203,0.0,0.0,73,-99.99,,,-99.99,WSDL version 420,2013-02-07 06:35:00,
2013-02-07 01:40:00,20.3,13.6,29.18,SSW,203,0.0,0.0,72,-99.99,,,-99.99,WSDL version 420,2013-02-07 06:40:00,
2013-02-07 01:45:00,20.3,13.6,29.18,SSW,203,0.0,0.0,72,-99.99,,,-99.99,WSDL version 420,2013-02-07 06:45:00,
2013-02-07 01:50:00,20.8,14.3,29.18,SSW,203,0.0,0.0,73,-99.99,,,-99.99,WSDL version 420,2013-02-07 06:50:00,
2013-02-07 01:55:00,20.7,14.2,29.18,SSW,203,0.0,0.0,73,-99.99,,,-99.99,WSDL version 420,2013-02-07 06:55:00,
2013-02-07 01:57:00,20.7,14.2,29.18,SSW,203,0.0,0.0,73,-99.99,,,-99.99,WSDL version 420,2013-02-07 06:57:00,
2013-02-07 02:03:00,21.2,14.8,29.18,SSW,203,0.0,0.0,74,-99.99,,,-99.99,WSDL version 420,2013-02-07 07:03:00,
2013-02-07 02:08:00,21.5,15.3,29.18,SSW,203,0.0,0.0,74,-99.99,,,-99.99,WSDL version 420,2013-02-07 07:08:00,
2013-02-07 02:13:00,21.7,15.5,29.18,SSW,203,0.0,0.0,74,-99.99,,,-99.99,WSDL version 420,2013-02-07 07:13:00,
2013-02-07 02:18:00,21.9,15.7,29.18,SSW,203,0.0,0.0,74,-99.99,,,-99.99,WSDL version 420,2013-02-07 07:18:00,
2013-02-07 02:23:00,21.9,15.7,29.18,SSW,203,0.0,0.0,74,-99.99,,,-99.99,WSDL version 420,2013-02-07 07:23:00,
2013-02-07 02:28:00,22.0,15.7,29.18,SSW,203,0.0,0.0,74,-99.99,,,-99.99,WSDL version 420,2013-02-07 07:28:00,
2013-02-07 02:33:00,22.2,15.9,29.18,SSW,203,0.0,0.0,74,-99.99,,,-99.99,WSDL version 420,2013-02-07 07:33:00,
2013-02-07 02:38:00,22.5,16.2,29.15,SSW,203,0.0,0.0,74,-99.99,,,-99.99,WSDL version 420,2013-02-07 07:38:00,
2013-02-07 02:43:00,22.7,16.5,29.15,SSW,203,0.0,0.0,75,-99.99,,,-99.99,WSDL version 420,2013-02-07 07:43:00,
2013-02-07 02:48:00,23.1,17.0,29.15,SSW,203,0.0,0.0,74,-99.99,,,-99.99,WSDL version 420,2013-02-07 07:48:00,
2013-02-07 02:53:00,23.3,17.0,29.15,SSW,203,0.0,0.0,74,-99.99,,,-99.99,WSDL version 420,2013-02-07 07:53:00,
2013-02-07 02:58:00,23.4,17.1,29.15,SSW,203,0.0,0.0,74,-99.99,,,-99.99,WSDL version 420,2013-02-07 07:58:00,
2013-02-07 03:03:00,23.5,17.0,29.15,SSW,203,0.0,0.0,73,-99.99,,,-99.99,WSDL version 420,2013-02-07 08:03:00,
2013-02-07 03:08:00,23.7,17.2,29.15,SSW,203,0.0,0.0,73,-99.99,,,-99.99,WSDL version 420,2013-02-07 08:08:00,
2013-02-07 03:13:00,23.8,17.3,29.15,SSW,203,0.0,0.0,73,-99.99,,,-99.99,WSDL version 420,2013-02-07 08:13:00,
2013-02-07 03:18:00,24.1,17.7,29.15,SSW,203,0.0,0.0,74,-99.99,,,-99.99,WSDL version 420,2013-02-07 08:18:00,
2013-02-07 03:23:00,24.1,17.8,29.12,SSW,203,0.0,0.0,74,-99.99,,,-99.99,WSDL version 420,2013-02-07 08:23:00,
2013-02-07 03:28:00,24.1,17.8,29.12,SSW,203,0.0,0.0,74,-99.99,,,-99.99,WSDL version 420,2013-02-07 08:28:00,
2013-02-07 03:33:00,24.1,17.8,29.12,SSW,203,0.0,0.0,74,-99.99,,,-99.99,WSDL version 420,2013-02-07 08:33:00,
2013-02-07 03:38:00,24.1,17.8,29.12,SSW,203,0.0,0.0,74,-99.99,,,-99.99,WSDL version 420,2013-02-07 08:38:00,
2013-02-07 03:43:00,24.3,18.0,29.12,SSW,203,0.0,0.0,74,-99.99,,,-99.99,WSDL version 420,2013-02-07 08:43:00,
2013-02-07 03:48:00,24.1,17.9,29.12,South,191,0.0,0.0,74,-99.99,,,-99.99,WSDL version 420,2013-02-07 08:48:00,
2013-02-07 03:53:00,24.2,18.0,29.12,South,180,0.0,0.0,74,-99.99,,,-99.99,WSDL version 420,2013-02-07 08:53:00,
2013-02-07 03:58:00,24.1,17.8,29.12,South,180,0.0,0.0,74,-99.99,,,-99.99,WSDL version 420,2013-02-07 08:58:00,
2013-02-07 04:03:00,24.1,17.8,29.12,South,180,0.0,0.0,74,-99.99,,,-99.99,WSDL version 420,2013-02-07 09:03:00,
2013-02-07 04:08:00,24.1,17.9,29.12,South,180,0.0,0.0,75,-99.99,,,-99.99,WSDL version 420,2013-02-07 09:08:00,
2013-02-07 04:13:00,23.9,17.8,29.12,South,180,0.0,0.0,74,-99.99,,,-99.99,WSDL version 420,2013-02-07 09:13:00,
2013-02-07 04:18:00,23.7,17.4,29.12,South,180,0.0,0.0,74,-99.99,,,-99.99,WSDL version 420,2013-02-07 09:18:00,
2013-02-07 04:23:00,23.6,17.4,29.15,South,180,0.0,0.0,74,-99.99,,,-99.99,WSDL version 420,2013-02-07 09:23:00,
2013-02-07 04:28:00,23.8,17.5,29.15,South,180,0.0,0.0,75,-99.99,,,-99.99,WSDL version 420,2013-02-07 09:28:00,
2013-02-07 04:33:00,23.8,17.7,29.15,South,180,0.0,0.0,75,-99.99,,,-99.99,WSDL version 420,2013-02-07 09:33:00,
2013-02-07 04:38:00,23.5,17.3,29.12,South,180,0.0,0.0,74,-99.99,,,-99.99,WSDL version 420,2013-02-07 09:38:00,
2013-02-07 04:43:00,23.6,17.4,29.12,South,180,0.0,0.0,75,-99.99,,,-99.99,WSDL version 420,2013-02-07 09:43:00,
2013-02-07 04:48:00,23.9,17.9,29.12,South,180,0.0,0.0,75,-99.99,,,-99.99,WSDL version 420,2013-02-07 09:48:00,
2013-02-07 04:53:00,23.9,17.9,29.15,South,180,0.0,0.0,75,-99.99,,,-99.99,WSDL version 420,2013-02-07 09:53:00,
2013-02-07 04:58:00,24.0,18.2,29.15,South,180,0.0,0.0,76,-99.99,,,-99.99,WSDL version 420,2013-02-07 09:58:00,
2013-02-07 05:03:00,24.2,18.5,29.15,South,180,0.0,0.0,76,-99.99,,,-99.99,WSDL version 420,2013-02-07 10:03:00,
2013-02-07 05:08:00,24.4,18.6,29.15,South,180,0.0,0.0,76,-99.99,,,-99.99,WSDL version 420,2013-02-07 10:08:00,
2013-02-07 05:13:00,24.5,18.8,29.15,South,180,0.0,0.0,76,-99.99,,,-99.99,WSDL version 420,2013-02-07 10:13:00,
2013-02-07 05:18:00,24.8,19.0,29.15,South,180,0.0,0.0,76,-99.99,,,-99.99,WSDL version 420,2013-02-07 10:18:00,
2013-02-07 05:23:00,24.8,18.9,29.15,South,180,0.0,0.0,75,-99.99,,,-99.99,WSDL version 420,2013-02-07 10:23:00,
2013-02-07 05:28:00,24.8,18.8,29.15,South,180,0.0,0.0,75,-99.99,,,-99.99,WSDL version 420,2013-02-07 10:28:00,
2013-02-07 05:33:00,24.8,18.8,29.15,South,180,0.0,0.0,75,-99.99,,,-99.99,WSDL version 420,2013-02-07 10:33:00,
2013-02-07 05:38:00,24.8,18.8,29.15,South,180,0.0,0.0,75,-99.99,,,-99.99,WSDL version 420,2013-02-07 10:38:00,
2013-02-07 05:43:00,24.8,18.8,29.15,South,180,0.0,0.0,76,-99.99,,,-99.99,WSDL version 420,2013-02-07 10:43:00,
2013-02-07 05:48:00,24.8,19.0,29.15,South,180,0.0,0.0,76,-99.99,,,-99.99,WSDL version 420,2013-02-07 10:48:00,
2013-02-07 05:53:00,25.0,19.2,29.15,South,180,0.0,0.0,76,-99.99,,,-99.99,WSDL version 420,2013-02-07 10:53:00,
2013-02-07 05:58:00,25.3,19.5,29.15,South,180,0.0,0.0,76,-99.99,,,-99.99,WSDL version 420,2013-02-07 10:58:00,
2013-02-07 06:03:00,25.3,19.6,29.15,South,180,0.0,0.0,76,-99.99,,,-99.99,WSDL version 420,2013-02-07 11:03:00,
2013-02-07 06:08:00,25.3,19.6,29.15,South,180,0.0,0.0,76,-99.99,,,-99.99,WSDL version 420,2013-02-07 11:08:00,
2013-02-07 06:13:00,25.4,19.7,29.15,South,180,0.0,0.0,76,-99.99,,,-99.99,WSDL version 420,2013-02-07 11:13:00,
2013-02-07 06:18:00,25.5,19.7,29.15,South,180,0.0,0.0,76,-99.99,,,-99.99,WSDL version 420,2013-02-07 11:18:00,
2013-02-07 06:23:00,25.5,19.7,29.15,South,180,0.0,0.0,76,-99.99,,,-99.99,WSDL version 420,2013-02-07 11:23:00,
2013-02-07 06:28:00,25.6,19.8,29.15,South,180,0.0,0.0,76,-99.99,,,-99.99,WSDL version 420,2013-02-07 11:28:00,
2013-02-07 06:33:00,25.7,19.9,29.15,South,180,0.0,0.0,76,-99.99,,,-99.99,WSDL version 420,2013-02-07 11:33:00,
2013-02-07 06:38:00,25.9,20.3,29.18,South,180,0.0,0.0,77,-99.99,,,-99.99,WSDL version 420,2013-02-07 11:38:00,
2013-02-07 06:43:00,26.0,20.5,29.18,South,180,0.0,0.0,77,-99.99,,,-99.99,WSDL version 420,2013-02-07 11:43:00,
2013-02-07 06:48:00,26.1,20.4,29.18,South,180,0.0,0.0,76,-99.99,,,-99.99,WSDL version 420,2013-02-07 11:48:00,
2013-02-07 06:53:00,26.1,20.3,29.15,South,180,0.0,0.0,76,-99.99,,,-99.99,WSDL version 420,2013-02-07 11:53:00,
2013-02-07 06:58:00,26.1,20.3,29.15,South,180,0.0,0.0,76,-99.99,,,-99.99,WSDL version 420,2013-02-07 11:58:00,
2013-02-07 07:04:00,26.2,20.5,29.15,South,180,0.0,0.0,76,-99.99,,,-99.99,WSDL version 420,2013-02-07 12:04:00,
2013-02-07 07:09:00,26.2,20.5,29.15,South,180,0.0,0.0,76,-99.99,,,-99.99,WSDL version 420,2013-02-07 12:09:00,
2013-02-07 07:14:00,26.2,20.5,29.15,South,180,0.0,0.0,76,-99.99,,,-99.99,WSDL version 420,2013-02-07 12:14:00,
2013-02-07 07:19:00,26.2,20.5,29.15,South,180,0.0,0.0,76,-99.99,,,-99.99,WSDL version 420,2013-02-07 12:19:00,
2013-02-07 07:25:00,26.2,20.5,29.18,South,180,0.0,0.0,76,-99.99,,,-99.99,WSDL version 420,2013-02-07 12:25:00,
2013-02-07 07:30:00,26.3,20.6,29.18,WSW,248,0.0,0.0,76,-99.99,,,-99.99,WSDL version 420,2013-02-07 12:30:00,
2013-02-07 07:35:00,26.6,20.8,29.18,NNW,338,1.0,1.6,76,-99.99,,,-99.99,WSDL version 420,2013-02-07 12:35:00,
2013-02-07 07:40:00,26.7,20.9,29.18,West,270,0.0,1.6,76,-99.99,,,-99.99,WSDL version 420,2013-02-07 12:40:00,
2013-02-07 07:45:00,26.9,21.1,29.18,West,270,0.0,1.3,76,-99.99,,,-99.99,WSDL version 420,2013-02-07 12:45:00,
2013-02-07 07:50:00,27.0,21.2,29.18,West,270,0.0,0.0,76,-99.99,,,-99.99,WSDL version 420,2013-02-07 12:50:00,
2013-02-07 07:55:00,27.3,21.7,29.18,West,270,0.0,0.0,77,-99.99,,,-99.99,WSDL version 420,2013-02-07 12:55:00,
2013-02-07 08:00:00,27.7,22.3,29.18,West,270,0.0,0.0,78,-99.99,,,-99.99,WSDL version 420,2013-02-07 13:00:00,
2013-02-07 08:05:00,28.1,22.8,29.18,West,270,0.0,0.0,78,-99.99,,,-99.99,WSDL version 420,2013-02-07 13:05:00,
2013-02-07 08:10:00,28.3,23.0,29.18,West,270,0.0,0.0,78,-99.99,,,-99.99,WSDL version 420,2013-02-07 13:10:00,
2013-02-07 08:15:00,28.8,23.5,29.18,West,270,0.0,0.0,78,-99.99,,,-99.99,WSDL version 420,2013-02-07 13:15:00,
2013-02-07 08:20:00,29.1,23.8,29.18,West,270,0.0,0.0,78,-99.99,,,-99.99,WSDL version 420,2013-02-07 13:20:00,
2013-02-07 08:25:00,29.2,23.8,29.18,South,180,0.0,2.0,77,-99.99,,,-99.99,WSDL version 420,2013-02-07 13:25:00,
2013-02-07 08:30:00,29.9,24.6,29.18,South,180,0.0,2.0,78,-99.99,,,-99.99,WSDL version 420,2013-02-07 13:30:00,
2013-02-07 08:35:00,30.1,24.8,29.18,South,180,0.0,0.0,78,-99.99,,,-99.99,WSDL version 420,2013-02-07 13:35:00,
2013-02-07 08:40:00,30.1,24.5,29.18,South,174,0.0,0.0,77,-99.99,,,-99.99,WSDL version 420,2013-02-07 13:40:00,
2013-02-07 08:45:00,30.4,24.6,29.18,ESE,113,0.0,2.2,77,-99.99,,,-99.99,WSDL version 420,2013-02-07 13:45:00,
2013-02-07 08:50:00,30.7,25.1,29.15,SE,135,0.0,2.2,77,-99.99,,,-99.99,WSDL version 420,2013-02-07 13:50:00,
2013-02-07 08:55:00,30.8,24.9,29.15,SE,135,0.0,0.0,76,-99.99,,,-99.99,WSDL version 420,2013-02-07 13:55:00,
2013-02-07 09:00:00,31.4,25.7,29.15,SE,135,0.0,0.0,77,-99.99,,,-99.99,WSDL version 420,2013-02-07 14:00:00,
2013-02-07 09:05:00,31.9,26.2,29.15,SE,135,0.0,0.0,77,-99.99,,,-99.99,WSDL version 420,2013-02-07 14:05:00,
2013-02-07 09:10:00,32.2,25.9,29.15,SE,135,0.0,0.0,77,-99.99,,,-99.99,WSDL version 420,2013-02-07 14:10:00,
2013-02-07 09:15:00,32.5,26.1,29.15,SE,135,0.0,0.0,77,-99.99,,,-99.99,WSDL version 420,2013-02-07 14:15:00,
2013-02-07 09:20:00,32.9,26.5,29.15,SE,135,0.0,0.0,77,-99.99,,,-99.99,WSDL version 420,2013-02-07 14:20:00,
2013-02-07 09:25:00,33.4,26.8,29.15,SE,135,0.0,0.0,76,-99.99,,,-99.99,WSDL version 420,2013-02-07 14:25:00,
2013-02-07 09:30:00,33.7,27.2,29.15,SE,135,0.0,0.0,76,-99.99,,,-99.99,WSDL version 420,2013-02-07 14:30:00,
2013-02-07 09:35:00,34.1,27.2,29.15,SE,135,0.0,0.0,76,-99.99,,,-99.99,WSDL version 420,2013-02-07 14:35:00,
2013-02-07 09:40:00,35.3,28.7,29.15,SE,135,0.0,0.0,77,-99.99,,,-99.99,WSDL version 420,2013-02-07 14:40:00,
2013-02-07 09:45:00,36.4,29.7,29.15,SE,135,0.0,0.0,77,-99.99,,,-99.99,WSDL version 420,2013-02-07 14:45:00,
2013-02-07 09:50:00,37.5,30.2,29.15,SE,135,0.0,0.0,72,-99.99,,,-99.99,WSDL version 420,2013-02-07 14:50:00,
2013-02-07 09:55:00,37.2,26.9,29.15,SSE,158,0.0,0.0,62,-99.99,,,-99.99,WSDL version 420,2013-02-07 14:55:00,
2013-02-07 10:00:00,36.9,24.0,29.15,South,180,0.0,0.0,58,-99.99,,,-99.99,WSDL version 420,2013-02-07 15:00:00,
2013-02-07 10:05:00,36.8,23.4,29.15,ESE,113,1.8,2.7,57,-99.99,,,-99.99,WSDL version 420,2013-02-07 15:05:00,
2013-02-07 10:11:00,37.6,23.6,29.15,ESE,113,0.0,2.7,56,-99.99,,,-99.99,WSDL version 420,2013-02-07 15:11:00,
2013-02-07 10:16:00,38.5,24.6,29.15,ESE,113,0.0,0.0,57,-99.99,,,-99.99,WSDL version 420,2013-02-07 15:16:00,
2013-02-07 10:21:00,39.5,24.4,29.12,ESE,113,0.0,0.0,54,-99.99,,,-99.99,WSDL version 420,2013-02-07 15:21:00,
2013-02-07 10:26:00,40.1,24.5,29.12,ESE,113,0.0,0.0,53,-99.99,,,-99.99,WSDL version 420,2013-02-07 15:26:00,
2013-02-07 10:31:00,39.8,22.1,29.12,ESE,113,0.0,1.3,49,-99.99,,,-99.99,WSDL version 420,2013-02-07 15:31:00,
2013-02-07 10:36:00,41.0,23.6,29.12,ESE,113,0.0,1.3,49,-99.99,,,-99.99,WSDL version 420,2013-02-07 15:36:00,
2013-02-07 10:41:00,41.7,23.2,29.12,ESE,113,0.0,0.0,44,-99.99,,,-99.99,WSDL version 420,2013-02-07 15:41:00,
2013-02-07 10:46:00,41.8,22.1,29.12,ESE,113,0.0,0.0,46,-99.99,,,-99.99,WSDL version 420,2013-02-07 15:46:00,
2013-02-07 10:51:00,42.7,22.2,29.12,ESE,113,0.0,0.0,42,-99.99,,,-99.99,WSDL version 420,2013-02-07 15:51:00,
2013-02-07 10:56:00,43.4,21.9,29.12,ESE,113,0.0,0.0,43,-99.99,,,-99.99,WSDL version 420,2013-02-07 15:56:00,
2013-02-07 11:01:00,43.2,20.1,29.12,ESE,113,0.0,0.0,38,-99.99,,,-99.99,WSDL version 420,2013-02-07 16:01:00,
2013-02-07 11:06:00,43.7,19.9,29.12,ESE,113,0.0,0.0,39,-99.99,,,-99.99,WSDL version 420,2013-02-07 16:06:00,
2013-02-07 11:11:00,43.4,19.1,29.12,ESE,113,0.0,2.0,38,-99.99,,,-99.99,WSDL version 420,2013-02-07 16:11:00,
2013-02-07 11:16:00,44.0,20.0,29.12,ESE,113,0.0,2.0,38,-99.99,,,-99.99,WSDL version 420,2013-02-07 16:16:00,
2013-02-07 11:21:00,44.8,20.7,29.12,NW,315,1.6,2.5,38,-99.99,,,-99.99,WSDL version 420,2013-02-07 16:21:00,
2013-02-07 11:26:00,44.4,20.7,29.12,West,270,1.3,2.5,38,-99.99,,,-99.99,WSDL version 420,2013-02-07 16:26:00,
2013-02-07 11:31:00,44.8,20.6,29.12,West,270,0.0,2.0,37,-99.99,,,-99.99,WSDL version 420,2013-02-07 16:31:00,
2013-02-07 11:36:00,46.5,21.1,29.09,West,270,0.0,1.1,34,-99.99,,,-99.99,WSDL version 420,2013-02-07 16:36:00,
2013-02-07 11:41:00,47.7,21.2,29.09,West,270,0.0,0.0,34,-99.99,,,-99.99,WSDL version 420,2013-02-07 16:41:00,
2013-02-07 11:46:00,47.8,20.1,29.09,SSE,165,0.0,0.0,34,-99.99,,,-99.99,WSDL version 420,2013-02-07 16:46:00,
2013-02-07 11:51:00,49.1,21.7,29.09,SSE,158,1.1,1.3,34,-99.99,,,-99.99,WSDL version 420,2013-02-07 16:51:00,
2013-02-07 11:56:00,49.2,19.5,29.09,SSE,158,0.0,1.3,29,-99.99,,,-99.99,WSDL version 420,2013-02-07 16:56:00,
2013-02-07 12:01:00,49.5,17.8,29.09,SSE,158,0.0,0.0,27,-99.99,,,-99.99,WSDL version 420,2013-02-07 17:01:00,
2013-02-07 12:06:00,50.8,18.3,29.09,SSE,158,0.0,0.0,27,-99.99,,,-99.99,WSDL version 420,2013-02-07 17:06:00,
2013-02-07 12:11:00,52.3,19.4,29.09,SSE,158,0.0,0.0,27,-99.99,,,-99.99,WSDL version 420,2013-02-07 17:11:00,
2013-02-07 12:16:00,52.6,20.0,29.09,WSW,248,0.0,1.1,27,-99.99,,,-99.99,WSDL version 420,2013-02-07 17:16:00,
2013-02-07 12:21:00,53.1,20.0,29.09,WSW,248,0.0,1.1,27,-99.99,,,-99.99,WSDL version 420,2013-02-07 17:21:00,
2013-02-07 12:26:00,55.1,20.4,29.09,NW,315,0.0,1.1,25,-99.99,,,-99.99,WSDL version 420,2013-02-07 17:26:00,
2013-02-07 12:31:00,56.6,20.2,29.09,WSW,248,0.0,0.0,22,-99.99,,,-99.99,WSDL version 420,2013-02-07 17:31:00,
2013-02-07 12:36:00,57.5,17.3,29.06,ESE,113,1.0,1.3,19,-99.99,,,-99.99,WSDL version 420,2013-02-07 17:36:00,
2013-02-07 12:41:00,58.6,15.6,29.06,ESE,113,0.0,1.3,19,-99.99,,,-99.99,WSDL version 420,2013-02-07 17:41:00,
2013-02-07 12:46:00,59.5,16.0,29.06,ESE,113,0.0,0.9,17,-99.99,,,-99.99,WSDL version 420,2013-02-07 17:46:00,
2013-02-07 12:51:00,59.8,14.9,29.06,ESE,113,0.0,0.9,17,-99.99,,,-99.99,WSDL version 420,2013-02-07 17:51:00,
2013-02-07 12:56:00,59.1,14.3,29.06,South,190,0.0,0.0,17,-99.99,,,-99.99,WSDL version 420,2013-02-07 17:56:00,
2013-02-07 13:01:00,58.4,13.8,29.06,West,270,0.0,1.3,17,-99.99,,,-99.99,WSDL version 420,2013-02-07 18:01:00,
2013-02-07 13:06:00,59.0,14.3,29.06,North,11,0.0,1.3,17,-99.99,,,-99.99,WSDL version 420,2013-02-07 18:06:00,
2013-02-07 13:11:00,59.2,14.4,29.06,East,90,0.0,2.0,17,-99.99,,,-99.99,WSDL version 420,2013-02-07 18:11:00,
2013-02-07 13:16:00,60.9,15.1,29.06,East,90,0.6,2.5,16,-99.99,,,-99.99,WSDL version 420,2013-02-07 18:16:00,
2013-02-07 13:22:00,64.4,16.1,29.03,East,83,1.3,2.9,15,-99.99,,,-99.99,WSDL version 420,2013-02-07 18:22:00,
2013-02-07 13:27:00,65.2,16.4,29.03,ENE,65,1.5,2.9,15,-99.99,,,-99.99,WSDL version 420,2013-02-07 18:27:00,
2013-02-07 13:32:00,66.1,17.1,29.03,ENE,73,1.4,2.9,15,-99.99,,,-99.99,WSDL version 420,2013-02-07 18:32:00,
2013-02-07 13:37:00,65.4,16.5,29.03,ESE,113,1.8,3.1,15,-99.99,,,-99.99,WSDL version 420,2013-02-07 18:37:00,
2013-02-07 13:42:00,63.8,16.3,29.03,ESE,113,1.8,3.8,16,-99.99,,,-99.99,WSDL version 420,2013-02-07 18:42:00,
2013-02-07 13:47:00,62.2,15.5,29.03,ESE,107,1.8,3.8,16,-99.99,,,-99.99,WSDL version 420,2013-02-07 18:47:00,
2013-02-07 13:52:00,62.0,15.3,29.03,ESE,120,1.4,3.8,16,-99.99,,,-99.99,WSDL version 420,2013-02-07 18:52:00,
2013-02-07 13:57:00,61.5,14.9,29.03,SE,128,2.1,2.9,16,-99.99,,,-99.99,WSDL version 420,2013-02-07 18:57:00,
2013-02-07 14:02:00,60.6,14.9,29.03,East,87,1.8,2.9,17,-99.99,,,-99.99,WSDL version 420,2013-02-07 19:02:00,
2013-02-07 14:07:00,59.4,14.5,29.00,ESE,113,0.5,3.8,17,-99.99,,,-99.99,WSDL version 420,2013-02-07 19:07:00,
2013-02-07 14:12:00,59.3,14.5,29.00,ESE,113,1.2,3.8,17,-99.99,,,-99.99,WSDL version 420,2013-02-07 19:12:00,
2013-02-07 14:17:00,56.9,12.6,29.00,ESE,107,1.2,2.7,17,-99.99,,,-99.99,WSDL version 420,2013-02-07 19:17:00,
2013-02-07 14:22:00,55.5,11.9,29.00,East,93,1.2,2.5,18,-99.99,,,-99.99,WSDL version 420,2013-02-07 19:22:00,
2013-02-07 14:27:00,54.1,11.5,29.00,SE,135,1.1,2.5,18,-99.99,,,-99.99,WSDL version 420,2013-02-07 19:27:00,
2013-02-07 14:32:00,53.3,10.8,29.00,SE,135,0.5,2.5,18,-99.99,,,-99.99,WSDL version 420,2013-02-07 19:32:00,
2013-02-07 14:37:00,52.9,10.6,29.00,ESE,110,1.2,2.0,18,-99.99,,,-99.99,WSDL version 420,2013-02-07 19:37:00,
2013-02-07 14:42:00,53.0,10.7,29.00,SE,128,1.1,2.5,18,-99.99,,,-99.99,WSDL version 420,2013-02-07 19:42:00,
2013-02-07 14:47:00,52.9,10.6,29.00,ESE,113,1.3,2.5,18,-99.99,,,-99.99,WSDL version 420,2013-02-07 19:47:00,
2013-02-07 14:52:00,52.2,9.9,29.00,ESE,105,2.0,2.9,18,-99.99,,,-99.99,WSDL version 420,2013-02-07 19:52:00,
2013-02-07 14:57:00,51.4,10.5,29.00,SE,127,1.8,3.8,19,-99.99,,,-99.99,WSDL version 420,2013-02-07 19:57:00,
2013-02-07 15:02:00,51.0,10.2,29.00,ESE,118,2.0,3.8,19,-99.99,,,-99.99,WSDL version 420,2013-02-07 20:02:00,
2013-02-07 15:07:00,51.3,10.4,29.00,ESE,113,1.0,3.1,19,-99.99,,,-99.99,WSDL version 420,2013-02-07 20:07:00,
2013-02-07 15:12:00,52.0,10.0,29.00,SE,124,1.5,2.5,18,-99.99,,,-99.99,WSDL version 420,2013-02-07 20:12:00,
2013-02-07 15:17:00,52.5,10.2,29.00,SSE,158,0.0,2.5,18,-99.99,,,-99.99,WSDL version 420,2013-02-07 20:17:00,
2013-02-07 15:22:00,54.2,11.6,29.00,ESE,115,1.6,2.7,18,-99.99,,,-99.99,WSDL version 420,2013-02-07 20:22:00,
2013-02-07 15:27:00,56.5,12.2,29.00,ESE,113,2.1,3.1,17,-99.99,,,-99.99,WSDL version 420,2013-02-07 20:27:00,
2013-02-07 15:32:00,58.4,13.8,29.00,SE,127,2.1,3.4,17,-99.99,,,-99.99,WSDL version 420,2013-02-07 20:32:00,
2013-02-07 15:37:00,57.7,13.2,29.00,East,98,2.2,3.6,17,-99.99,,,-99.99,WSDL version 420,2013-02-07 20:37:00,
2013-02-07 15:42:00,56.1,11.9,29.00,East,95,1.9,3.8,17,-99.99,,,-99.99,WSDL version 420,2013-02-07 20:42:00,
2013-02-07 15:47:00,55.8,11.7,29.00,East,90,0.0,3.8,17,-99.99,,,-99.99,WSDL version 420,2013-02-07 20:47:00,
2013-02-07 15:52:00,54.8,12.1,29.00,East,90,0.0,2.5,18,-99.99,,,-99.99,WSDL version 420,2013-02-07 20:52:00,
2013-02-07 15:57:00,55.3,11.8,29.00,SE,129,1.6,2.7,17,-99.99,,,-99.99,WSDL version 420,2013-02-07 20:57:00,
2013-02-07 16:02:00,55.7,11.6,29.00,ESE,113,2.0,2.9,17,-99.99,,,-99.99,WSDL version 420,2013-02-07 21:02:00,
2013-02-07 16:07:00,54.2,11.6,28.97,SE,135,1.9,2.9,18,-99.99,,,-99.99,WSDL version 420,2013-02-07 21:07:00,
2013-02-07 16:12:00,53.6,11.2,28.97,ESE,116,0.6,2.9,18,-99.99,,,-99.99,WSDL version 420,2013-02-07 21:12:00,
2013-02-07 16:17:00,53.5,11.0,28.97,ESE,103,2.1,2.7,18,-99.99,,,-99.99,WSDL version 420,2013-02-07 21:17:00,
2013-02-07 16:22:00,52.7,10.3,28.97,ESE,122,0.6,2.7,18,-99.99,,,-99.99,WSDL version 420,2013-02-07 21:22:00,
2013-02-07 16:27:00,52.2,10.0,28.97,SE,131,0.3,2.7,18,-99.99,,,-99.99,WSDL version 420,2013-02-07 21:27:00,
2013-02-07 16:32:00,50.8,10.0,28.97,WNW,293,0.0,2.5,19,-99.99,,,-99.99,WSDL version 420,2013-02-07 21:32:00,
2013-02-07 16:37:00,49.1,8.6,28.97,WNW,295,0.9,2.5,19,-99.99,,,-99.99,WSDL version 420,2013-02-07 21:37:00,
2013-02-07 16:42:00,48.2,7.8,28.97,NW,315,0.0,1.6,19,-99.99,,,-99.99,WSDL version 420,2013-02-07 21:42:00,
2013-02-07 16:47:00,47.0,6.9,28.97,NW,315,0.0,1.6,19,-99.99,,,-99.99,WSDL version 420,2013-02-07 21:47:00,
2013-02-07 16:52:00,45.9,7.1,28.97,NW,315,0.0,1.3,20,-99.99,,,-99.99,WSDL version 420,2013-02-07 21:52:00,
2013-02-07 16:57:00,44.4,6.5,28.97,NW,309,0.0,1.3,23,-99.99,,,-99.99,WSDL version 420,2013-02-07 21:57:00,
2013-02-07 17:02:00,43.6,8.2,28.97,NW,315,0.8,2.0,23,-99.99,,,-99.99,WSDL version 420,2013-02-07 22:02:00,
2013-02-07 17:07:00,42.8,9.4,28.97,NW,315,0.0,2.0,26,-99.99,,,-99.99,WSDL version 420,2013-02-07 22:07:00,
2013-02-07 17:12:00,41.6,10.5,28.97,NW,315,1.7,2.5,29,-99.99,,,-99.99,WSDL version 420,2013-02-07 22:12:00,
2013-02-07 17:17:00,-999.0,-99.9,28.97,WNW,293,0.4,2.5,-999,-99.99,,,-99.99,WSDL version 420,2013-02-07 22:17:00,
2013-02-07 17:22:00,40.2,11.4,28.97,WNW,293,1.0,2.7,31,-99.99,,,-99.99,WSDL version 420,2013-02-07 22:22:00,
2013-02-07 17:27:00,39.2,11.5,28.97,WNW,293,0.0,2.7,32,-99.99,,,-99.99,WSDL version 420,2013-02-07 22:27:00,
2013-02-07 17:32:00,38.4,11.4,28.97,NW,312,1.0,2.0,33,-99.99,,,-99.99,WSDL version 420,2013-02-07 22:32:00,
2013-02-07 17:37:00,38.2,13.7,28.97,NW,323,2.5,2.7,39,-99.99,,,-99.99,WSDL version 420,2013-02-07 22:37:00,
2013-02-07 17:42:00,38.3,15.6,28.97,WNW,296,1.8,3.1,40,-99.99,,,-99.99,WSDL version 420,2013-02-07 22:42:00,
2013-02-07 17:47:00,38.3,16.3,28.97,WNW,298,2.2,3.1,41,-99.99,,,-99.99,WSDL version 420,2013-02-07 22:47:00,
2013-02-07 17:52:00,37.6,15.9,28.97,WNW,302,0.5,2.9,41,-99.99,,,-99.99,WSDL version 420,2013-02-07 22:52:00,
2013-02-07 17:57:00,36.9,15.4,28.97,WNW,293,0.0,2.7,41,-99.99,,,-99.99,WSDL version 420,2013-02-07 22:57:00,
2013-02-07 18:02:00,36.3,14.8,28.97,WNW,293,0.0,0.0,41,-99.99,,,-99.99,WSDL version 420,2013-02-07 23:02:00,
2013-02-07 18:07:00,35.8,14.4,28.97,WNW,293,0.0,0.0,41,-99.99,,,-99.99,WSDL version 420,2013-02-07 23:07:00,
2013-02-07 18:12:00,35.3,14.5,28.97,WNW,293,0.0,0.0,42,-99.99,,,-99.99,WSDL version 420,2013-02-07 23:12:00,
2013-02-07 18:17:00,35.0,14.2,28.97,WNW,293,0.0,0.0,42,-99.99,,,-99.99,WSDL version 420,2013-02-07 23:17:00,
2013-02-07 18:22:00,34.7,14.0,28.97,WNW,293,0.0,0.0,42,-99.99,,,-99.99,WSDL version 420,2013-02-07 23:22:00,
2013-02-07 18:27:00,34.4,13.7,28.97,WNW,293,0.0,0.0,42,-99.99,,,-99.99,WSDL version 420,2013-02-07 23:27:00,
2013-02-07 18:32:00,34.1,14.1,28.97,WNW,296,0.0,0.0,44,-99.99,,,-99.99,WSDL version 420,2013-02-07 23:32:00,
2013-02-07 18:37:00,33.8,14.4,28.97,NW,315,0.0,0.0,45,-99.99,,,-99.99,WSDL version 420,2013-02-07 23:37:00,
2013-02-07 18:42:00,33.9,14.8,28.97,NW,315,0.0,0.0,46,-99.99,,,-99.99,WSDL version 420,2013-02-07 23:42:00,
2013-02-07 18:47:00,33.7,15.2,28.97,NW,315,0.0,0.0,47,-99.99,,,-99.99,WSDL version 420,2013-02-07 23:47:00,
2013-02-07 18:52:00,33.5,15.3,28.94,NW,315,0.0,0.0,47,-99.99,,,-99.99,WSDL version 420,2013-02-07 23:52:00,
2013-02-07 18:57:00,33.4,15.2,28.94,NW,315,0.0,0.0,47,-99.99,,,-99.99,WSDL version 420,2013-02-07 23:57:00,
2013-02-07 19:02:00,33.3,15.4,28.94,NW,315,0.0,0.0,48,-99.99,,,-99.99,WSDL version 420,2013-02-08 00:02:00,
2013-02-07 19:07:00,33.2,15.8,28.94,NW,315,0.0,0.0,49,-99.99,,,-99.99,WSDL version 420,2013-02-08 00:07:00,
2013-02-07 19:12:00,32.9,16.0,28.94,NW,315,0.0,0.0,50,-99.99,,,-99.99,WSDL version 420,2013-02-08 00:12:00,
2013-02-07 19:17:00,32.7,16.1,28.94,NW,315,0.0,0.0,50,-99.99,,,-99.99,WSDL version 420,2013-02-08 00:17:00,
2013-02-07 19:22:00,32.7,16.4,28.94,NW,315,0.0,0.0,51,-99.99,,,-99.99,WSDL version 420,2013-02-08 00:22:00,
2013-02-07 19:27:00,32.5,16.4,28.94,NW,315,0.0,0.0,51,-99.99,,,-99.99,WSDL version 420,2013-02-08 00:27:00,
2013-02-07 19:32:00,32.5,16.0,28.94,NW,315,0.0,0.0,50,-99.99,,,-99.99,WSDL version 420,2013-02-08 00:32:00,
2013-02-07 19:37:00,32.3,15.9,28.94,NW,315,0.0,0.0,51,-99.99,,,-99.99,WSDL version 420,2013-02-08 00:37:00,
2013-02-07 19:42:00,32.4,16.3,28.94,NNW,332,1.7,2.5,51,-99.99,,,-99.99,WSDL version 420,2013-02-08 00:42:00,
2013-02-07 19:47:00,33.0,17.4,28.94,NNW,338,0.0,2.5,53,-99.99,,,-99.99,WSDL version 420,2013-02-08 00:47:00,
2013-02-07 19:52:00,32.7,17.7,28.94,NE,45,0.0,2.0,54,-99.99,,,-99.99,WSDL version 420,2013-02-08 00:52:00,
2013-02-07 19:57:00,32.5,17.7,28.94,NE,45,0.0,0.0,54,-99.99,,,-99.99,WSDL version 420,2013-02-08 00:57:00,
2013-02-07 20:02:00,32.3,17.6,28.94,NE,45,0.0,0.0,55,-99.99,,,-99.99,WSDL version 420,2013-02-08 01:02:00,
2013-02-07 20:07:00,32.1,18.3,28.94,NE,45,0.0,0.0,55,-99.99,,,-99.99,WSDL version 420,2013-02-08 01:07:00,
2013-02-07 20:12:00,32.0,19.1,28.94,NE,45,0.0,0.0,55,-99.99,,,-99.99,WSDL version 420,2013-02-08 01:12:00,
2013-02-07 20:17:00,31.7,19.0,28.94,NE,45,0.0,0.0,55,-99.99,,,-99.99,WSDL version 420,2013-02-08 01:17:00,
2013-02-07 20:22:00,31.5,18.8,28.94,NE,45,0.0,0.0,55,-99.99,,,-99.99,WSDL version 420,2013-02-08 01:22:00,
2013-02-07 20:27:00,31.5,18.8,28.94,WNW,293,0.1,1.6,55,-99.99,,,-99.99,WSDL version 420,2013-02-08 01:27:00,
2013-02-07 20:32:00,31.4,18.7,28.94,WNW,293,0.4,1.6,55,-99.99,,,-99.99,WSDL version 420,2013-02-08 01:32:00,
2013-02-07 20:37:00,31.6,19.2,28.94,NNW,338,0.0,1.3,56,-99.99,,,-99.99,WSDL version 420,2013-02-08 01:37:00,
2013-02-07 20:42:00,31.5,19.3,28.94,NNW,338,0.0,0.0,57,-99.99,,,-99.99,WSDL version 420,2013-02-08 01:42:00,
2013-02-07 20:47:00,31.4,19.4,28.94,SE,135,0.0,0.0,57,-99.99,,,-99.99,WSDL version 420,2013-02-08 01:47:00,
2013-02-07 20:52:00,31.2,19.2,28.94,SE,135,0.0,0.0,57,-99.99,,,-99.99,WSDL version 420,2013-02-08 01:52:00,
2013-02-07 20:57:00,31.0,19.3,28.94,SE,135,0.0,0.0,58,-99.99,,,-99.99,WSDL version 420,2013-02-08 01:57:00,
2013-02-07 21:02:00,31.0,19.6,28.94,SE,135,0.0,0.0,59,-99.99,,,-99.99,WSDL version 420,2013-02-08 02:02:00,
2013-02-07 21:07:00,30.9,19.6,28.94,SE,135,0.0,0.0,59,-99.99,,,-99.99,WSDL version 420,2013-02-08 02:07:00,
2013-02-07 21:12:00,30.6,19.4,28.94,SE,135,0.0,0.0,59,-99.99,,,-99.99,WSDL version 420,2013-02-08 02:12:00,
2013-02-07 21:17:00,30.6,19.1,28.94,North,360,0.0,0.0,58,-99.99,,,-99.99,WSDL version 420,2013-02-08 02:17:00,
2013-02-07 21:22:00,30.5,18.9,28.91,North,360,0.0,0.0,58,-99.99,,,-99.99,WSDL version 420,2013-02-08 02:22:00,
2013-02-07 21:27:00,30.3,18.9,28.91,North,360,0.0,0.0,59,-99.99,,,-99.99,WSDL version 420,2013-02-08 02:27:00,
2013-02-07 21:32:00,30.3,19.4,28.91,North,360,0.0,0.0,60,-99.99,,,-99.99,WSDL version 420,2013-02-08 02:32:00,
2013-02-07 21:37:00,30.1,19.4,28.91,North,360,0.0,0.0,61,-99.99,,,-99.99,WSDL version 420,2013-02-08 02:37:00,
2013-02-07 21:42:00,30.0,19.5,28.91,North,360,0.0,0.0,61,-99.99,,,-99.99,WSDL version 420,2013-02-08 02:42:00,
2013-02-07 21:47:00,29.9,19.8,28.91,North,360,0.0,0.0,62,-99.99,,,-99.99,WSDL version 420,2013-02-08 02:47:00,
2013-02-07 21:52:00,29.8,19.6,28.91,North,360,0.0,0.0,62,-99.99,,,-99.99,WSDL version 420,2013-02-08 02:52:00,
2013-02-07 21:57:00,29.8,19.7,28.91,North,360,0.0,0.0,62,-99.99,,,-99.99,WSDL version 420,2013-02-08 02:57:00,
2013-02-07 22:02:00,29.7,19.6,28.91,North,360,0.0,0.0,63,-99.99,,,-99.99,WSDL version 420,2013-02-08 03:02:00,
2013-02-07 22:07:00,29.5,19.7,28.91,North,360,0.0,0.0,63,-99.99,,,-99.99,WSDL version 420,2013-02-08 03:07:00,
2013-02-07 22:12:00,29.5,19.8,28.91,North,360,0.0,0.0,64,-99.99,,,-99.99,WSDL version 420,2013-02-08 03:12:00,
2013-02-07 22:17:00,29.5,20.0,28.91,North,360,0.0,0.0,64,-99.99,,,-99.99,WSDL version 420,2013-02-08 03:17:00,
2013-02-07 22:22:00,29.5,20.0,28.91,North,360,0.0,0.0,64,-99.99,,,-99.99,WSDL version 420,2013-02-08 03:22:00,
2013-02-07 22:27:00,29.4,19.9,28.91,WNW,293,0.0,0.0,64,-99.99,,,-99.99,WSDL version 420,2013-02-08 03:27:00,
2013-02-07 22:32:00,29.5,19.8,28.91,WNW,293,0.0,0.0,63,-99.99,,,-99.99,WSDL version 420,2013-02-08 03:32:00,
2013-02-07 22:37:00,29.3,19.5,28.91,WNW,293,0.0,0.0,63,-99.99,,,-99.99,WSDL version 420,2013-02-08 03:37:00,
2013-02-07 22:42:00,29.3,19.6,28.91,WNW,293,0.0,0.0,64,-99.99,,,-99.99,WSDL version 420,2013-02-08 03:42:00,
2013-02-07 22:47:00,29.4,20.1,28.91,WNW,293,0.0,0.0,65,-99.99,,,-99.99,WSDL version 420,2013-02-08 03:47:00,
2013-02-07 22:52:00,29.3,20.3,28.91,WNW,293,0.0,0.0,66,-99.99,,,-99.99,WSDL version 420,2013-02-08 03:52:00,
2013-02-07 22:57:00,29.3,20.4,28.91,SW,225,0.0,0.0,66,-99.99,,,-99.99,WSDL version 420,2013-02-08 03:57:00,
2013-02-07 23:02:00,29.3,20.4,28.91,SW,225,0.0,0.0,66,-99.99,,,-99.99,WSDL version 420,2013-02-08 04:02:00,
2013-02-07 23:07:00,29.1,20.4,28.88,SW,225,0.0,0.0,67,-99.99,,,-99.99,WSDL version 420,2013-02-08 04:07:00,
2013-02-07 23:12:00,29.1,20.6,28.88,SW,225,0.0,0.0,67,-99.99,,,-99.99,WSDL version 420,2013-02-08 04:12:00,
2013-02-07 23:17:00,29.1,20.6,28.88,SW,225,0.0,0.0,67,-99.99,,,-99.99,WSDL version 420,2013-02-08 04:17:00,
2013-02-07 23:22:00,28.9,20.3,28.88,SW,225,0.0,0.0,66,-99.99,,,-99.99,WSDL version 420,2013-02-08 04:22:00,
2013-02-07 23:27:00,28.9,20.1,28.88,SW,225,0.0,0.0,66,-99.99,,,-99.99,WSDL version 420,2013-02-08 04:27:00,
2013-02-07 23:32:00,29.3,20.8,28.88,SW,225,0.0,0.0,67,-99.99,,,-99.99,WSDL version 420,2013-02-08 04:32:00,
2013-02-07 23:37:00,29.2,20.6,28.88,SW,225,0.0,0.0,67,-99.99,,,-99.99,WSDL version 420,2013-02-08 04:37:00,
2013-02-07 23:42:00,28.9,20.4,28.88,SW,225,0.0,0.0,67,-99.99,,,-99.99,WSDL version 420,2013-02-08 04:42:00,
2013-02-07 23:47:00,28.9,20.7,28.88,SW,225,0.0,0.0,68,-99.99,,,-99.99,WSDL version 420,2013-02-08 04:47:00,
2013-02-07 23:52:00,28.9,20.7,28.88,SW,225,0.0,0.0,68,-99.99,,,-99.99,WSDL version 420,2013-02-08 04:52:00,
2013-02-07 23:57:00,28.8,20.8,28.88,SW,225,0.0,0.0,69,-99.99,,,-99.99,WSDL version 420,2013-02-08 04:57:00,